This demonstration page uses our WeatherBlox Daily Observations layout. Learn more.

Left ArrowRight Arrow

39.08367, -84.50855

Hourly Observations for July 2, 2017

Temp ( °F °C ) Dew Point ( °F °C ) Humidity (%) Winds ( mph kmh ) Pressure ( in mb ) Visibility ( mi km ) Precip ( " mm )
12:53 am 00:53 Clear 68 20 67 19.4 96 96 N N/A 30.04 1017 8 12.87472 N/A
1:53 am 01:53 Clear with Mist and Fog 66 18.9 65 18.3 96 96 N N/A 30.04 1017 6 9.65604 N/A
2:37 am 02:37 Clear with Mist and Fog 65 18.3 65 18.3 100 100 N N/A 30.03 1017 1.5 2.41401 N/A
2:45 am 02:45 Clear with Mist and Fog 64 17.8 64 17.8 100 100 N N/A 30.03 1017 0.75 1.207005 N/A
2:48 am 02:48 Clear with Mist and Fog 64 18 64 18 100 100 N N/A 30.03 1017 2 3.21868 N/A
2:53 am 02:53 Clear with Mist and Fog 65 18.3 64 17.8 97 97 N N/A 30.04 1017 5 8.0467 N/A
3:15 am 03:15 Clear with Mist and Fog 65 18.3 64 17.8 97 97 N N/A 30.03 1017 1.5 2.41401 N/A
3:25 am 03:25 Clear with Mist and Fog 63 17.2 63 17.2 100 100 N N/A 30.03 1017 4 6.43736 N/A
3:37 am 03:37 Clear with Mist and Fog 64 17.8 64 17.8 100 100 N N/A 30.03 1017 1.75 2.816345 N/A
3:44 am 03:44 Clear with Fog 63 17.2 63 17.2 100 100 N N/A 30.03 1017 0.25 0.402335 N/A
3:53 am 03:53 Clear with Fog 64 17.8 64 17.8 100 100 N N/A 30.04 1017 0.25 0.402335 N/A
4:00 am 04:00 Clear with Mist and Fog 65 18.3 65 18.3 100 100 N N/A 30.03 1017 0.75 1.207005 N/A
4:04 am 04:04 Clear with Mist and Fog 64 17.8 64 17.8 100 100 N N/A 30.03 1017 2 3.21868 N/A
4:36 am 04:36 Clear with Mist and Fog 64 17.8 64 17.8 100 100 N N/A 30.03 1017 1.75 2.816345 N/A
4:53 am 04:53 Clear with Mist and Fog 63 17.2 63 17.2 100 100 N N/A 30.05 1018 0.75 1.207005 N/A
5:13 am 05:13 Mostly Cloudy with Mist and Fog 64 17.8 64 17.8 100 100 N N/A 30.03 1017 1 1.60934 N/A
5:20 am 05:20 Mostly Clear with Mist and Fog 63 17.2 63 17.2 100 100 N N/A 30.03 1017 1.25 2.011675 N/A
5:40 am 05:40 Clear with Fog 64 17.8 64 17.8 100 100 N N/A 30.03 1017 0.5 0.80467 N/A
5:53 am 05:53 Clear with Fog 63 17.2 63 17.2 100 100 N N/A 30.06 1018 0.25 0.402335 N/A
6:03 am 06:03 Mostly Cloudy with Fog 62 16.7 62 16.7 100 100 N N/A 30.03 1017 0.5 0.80467 N/A
6:13 am 06:13 Clear with Fog 62 16.7 62 16.7 100 100 N N/A 30.06 1018 0.25 0.402335 N/A
6:20 am 06:20 Mostly Cloudy with Fog 62 16.7 62 16.7 100 100 N N/A 30.06 1018 0.25 0.402335 N/A
6:47 am 06:47 Partly Cloudy with Fog 63 17 63 17 100 100 N N/A 30.06 1018 0.5 0.80467 N/A
6:53 am 06:53 Partly Cloudy with Patchy Fog 62 16.7 62 16.7 100 100 ENE 3 6 30.07 1018 7 11.26538 N/A
7:53 am 07:53 Mostly Sunny 67 19.4 66 18.9 97 97 SSW 3 6 30.08 1019 10 16.0934 N/A
8:53 am 08:53 Sunny 74 23.3 68 20 82 82 S 3 6 30.1 1019 10 16.0934 N/A
9:53 am 09:53 Sunny 78 25.6 64 17.8 62 62 W 5 7 30.1 1019 10 16.0934 N/A
10:53 am 10:53 Sunny 81 27.2 62 16.7 53 53 VRB 6 9 30.11 1020 10 16.0934 N/A
11:53 am 11:53 Mostly Sunny 82 27.8 62 16.7 51 51 WSW 9 15 30.11 1020 10 16.0934 N/A
12:53 pm 12:53 Partly Cloudy 83 28.3 63 17.2 51 51 WSW 12 19 30.11 1020 10 16.0934 N/A
1:53 pm 13:53 Partly Cloudy 84 28.9 63 17.2 49 49 SW 14 22 30.09 1019 10 16.0934 N/A
2:53 pm 14:53 Mostly Sunny 85 29.4 61 16.1 45 45 VRB 7 11 30.07 1018 10 16.0934 N/A
3:53 pm 15:53 Mostly Cloudy 85 29.4 62 16.7 46 46 WSW 13 20 30.06 1018 10 16.0934 N/A
4:53 pm 16:53 Mostly Cloudy 84 28.9 61 16.1 46 46 WSW 7 11 30.05 1018 10 16.0934 N/A
5:53 pm 17:53 Mostly Cloudy 83 28.3 62 16.7 49 49 SW 13 20 30.05 1018 10 16.0934 N/A
6:53 pm 18:53 Mostly Cloudy 83 28.3 61 16.1 48 48 W 6 9 30.04 1017 10 16.0934 N/A
7:53 pm 19:53 Partly Cloudy 84 28.9 66 18.9 55 55 WSW 3 6 30.05 1018 10 16.0934 N/A
8:53 pm 20:53 Sunny 79 26.1 62 16.7 56 56 NW 3 6 30.04 1017 10 16.0934 N/A
9:53 pm 21:53 Clear 70 21.1 65 18.3 84 84 N N/A 30.05 1018 10 16.0934 N/A
10:53 pm 22:53 Mostly Clear 70 21.1 65 18.3 84 84 N N/A 30.07 1018 10 16.0934 N/A
11:53 pm 23:53 Clear 67 19.4 64 17.8 91 91 N N/A 30.08 1019 10 16.0934 N/A

Powered by AerisWeather